This demonstration page uses our WeatherBlox Daily Observations layout. Learn more.

Left ArrowRight Arrow

39.92423, -83.80882

Hourly Observations for January 20, 2021

Temp ( °F °C ) Dew Point ( °F °C ) Humidity (%) Winds ( mph kmh ) Pressure ( in mb ) Visibility ( mi km ) Precip ( " mm )
12:56 am 00:56 Mostly Cloudy 34 1.1 28 -2.2 79 79 W 18 30 30.08 1019 10 16.0934 0.001 0.001
1:09 am 01:09 Cloudy 34 1 28 -2 81 81 W 17 28 30.09 1019 10 16.0934 0 0
1:56 am 01:56 Cloudy 34 1.1 26 -3.3 73 73 W 25 41 30.09 1019 10 16.0934 0 0
2:04 am 02:04 Cloudy 34 1 27 -3 75 75 W 21 33 30.11 1020 10 16.0934 0 0
2:35 am 02:35 Cloudy with Light Rain 34 1 27 -3 75 75 W 15 24 30.12 1020 10 16.0934 0.001 0.001
2:56 am 02:56 Windy with Snow Likely 34 1.1 27 -2.8 76 76 W 22 35 30.11 1020 9 14.48406 0.001 0.001
3:30 am 03:30 Mostly Cloudy with Light Snow 30 -1 27 -3 86 86 WNW 24 39 30.16 1021 9 14.48406 0.001 0.001
3:56 am 03:56 Mostly Cloudy 31 -0.6 23 -5 72 72 W 18 30 30.14 1021 10 16.0934 0.001 0.001
4:29 am 04:29 Cloudy 30 -1 25 -4 80 80 W 24 39 30.18 1022 10 16.0934 0 0
4:56 am 04:56 Cloudy 30 -1.1 24 -4.4 79 79 W 20 31 30.16 1022 10 16.0934 0 0
5:56 am 05:56 Cloudy with Light Snow 29 -1.7 25 -3.9 85 85 WNW 14 22 30.2 1023 9 14.48406 0.001 0.001
6:56 am 06:56 Cloudy with Light Snow 28 -2.2 22 -5.6 78 78 NW 14 22 30.23 1024 9 14.48406 0.001 0.001
7:56 am 07:56 Cloudy with Light Snow 27 -2.8 21 -6.1 78 78 NW 10 17 30.24 1024 9 14.48406 0.001 0.001
8:56 am 08:56 Cloudy with Light Snow 27 -2.8 21 -6.1 78 78 NW 7 11 30.27 1025 9 14.48406 0.001 0.001
9:56 am 09:56 Cloudy with Light Snow 27 -2.8 22 -5.6 81 81 WNW 5 7 30.29 1026 9 14.48406 0.001 0.001
10:56 am 10:56 Cloudy with Light Snow 27 -2.8 23 -5 85 85 W 3 6 30.3 1026 9 14.48406 0.001 0.001
11:56 am 11:56 Cloudy with Light Snow 27 -2.8 25 -3.9 92 92 WSW 8 13 30.29 1026 9 14.48406 0.001 0.001
12:05 pm 12:05 Cloudy with Light Snow 27 -3 25 -4 93 93 W 9 15 30.32 1027 9 14.48406 0.001 0.001
12:44 pm 12:44 Cloudy with Light Snow 28 -2 25 -4 86 86 W 8 13 30.3 1026 9 14.48406 0.001 0.001
12:56 pm 12:56 Cloudy 29 -1.7 25 -3.9 85 85 WSW 8 13 30.26 1025 10 16.0934 0.001 0.001
1:09 pm 13:09 Cloudy 28 -2 25 -4 86 86 W 6 9 30.28 1025 10 16.0934 0 0
1:56 pm 13:56 Cloudy 33 0.6 23 -5 66 66 WSW 13 20 30.21 1023 10 16.0934 0 0
2:56 pm 14:56 Partly Cloudy 31 -0.6 22 -5.6 69 69 WSW 7 11 30.17 1022 10 16.0934 0 0
3:10 pm 15:10 Mostly Cloudy 34 1 21 -6 60 60 SSW 10 17 30.16 1021 10 16.0934 0 0
3:26 pm 15:26 Partly Cloudy 32 0 21 -6 64 64 SSW 7 11 30.16 1021 10 16.0934 0 0
3:56 pm 15:56 Mostly Sunny 33 0.6 21 -6.1 61 61 WSW 10 17 30.13 1020 10 16.0934 0 0
4:56 pm 16:56 Mostly Sunny 33 0.6 21 -6.1 61 61 SSW 10 17 30.13 1020 10 16.0934 0 0
5:56 pm 17:56 Clear 30 -1.1 21 -6.1 69 69 SW 7 11 30.11 1020 10 16.0934 0 0
6:56 pm 18:56 Clear 28 -2.2 20 -6.7 72 72 SSW 7 11 30.1 1019 10 16.0934 0 0
7:56 pm 19:56 Clear 27 -2.8 20 -6.7 75 75 SW 8 13 30.09 1019 10 16.0934 0 0
8:56 pm 20:56 Clear 27 -2.8 20 -6.7 75 75 SSW 8 13 30.05 1018 10 16.0934 0 0
9:56 pm 21:56 Clear 28 -2.2 20 -6.7 72 72 SSW 9 15 30.01 1016 10 16.0934 0 0
10:56 pm 22:56 Mostly Cloudy 29 -1.7 20 -6.7 69 69 SW 13 20 29.97 1015 10 16.0934 0 0
11:56 pm 23:56 Cloudy 31 -0.6 20 -6.7 64 64 SW 12 19 29.95 1014 10 16.0934 0 0

Powered by AerisWeather